Location: Waco, TX
(31.5480°N, 97.1670°W)
Time: 04:33:48
(UTC-05:00)

ISS - Pass Details

Date: 11 May 2021
Orbit: 417 x 422 km, 51.6° (Epoch: 15 May)

Event Time Altitude Azimuth Distance (km) Brightness Sun altitude
Rises 07:38:09 0° 306° (NW) 2,366 -0.3 12.0°
Reaches altitude 10° 07:40:22 10° 297° (WNW) 1,500 -1.4 12.5°
Maximum altitude 07:43:27 34° 230° (SW) 705 -2.9 13.1°
Drops below altitude 10° 07:46:32 10° 163° (SSE) 1,493 -0.9 13.8°
Sets 07:48:44 0° 154° (SSE) 2,353 0.2 14.2°
